STARLINK-1109, 44945

Orbit data source: Space-Track

STARLINK-1109, 44945 is a payload satellite owned by SpaceX/Seattle (US) in LEO that was launched on Tue, 07 Jan 2020 UTC via an FALCON 9 launch vehicle from the Air Force Eastern Test Range (AFETR). Payloads include a variety of satellites, spacecraft, and rockets equipped with specific instruments for various scientific and technological missions. These include communications satellites like Starlink; space stations such as the ISS; scientific satellites like the Hubble; Earth observation satellites from companies like Planet Labs, Umbra, and HawkEye 360; GPS; miniature CubeSats for education and research; and military/defense satellites.

Loading next visibility...
STARLINK-1109 details
Identifier
44945, 2020-001AH
Orbit
LEO
Last TLE update17 hours ago
Origin
Flag of USSpaceX/Seattle (US)
ManufacturerSpaceX/Seattle
MissionPartially operational Commercial Communications
Bus & MotorSTARLINK, Unknown motor
Mass260 kg wet, ~248 kg dry
Launch date (UTC)
2020-01-07 (5 years ago)
Launch vehicle
FALCON 9
Launch site
Air Force Eastern Test Range (AFETR)
Object type
Payload
Rocket body
Debris
Shape & HBRBox + 1 Pan, 8.86 m
Radar Cross Section13.562 m², Large (>1 m²)

Expand to show TLE details & history

TLE from 17 hours ago
0 STARLINK-1109
1 44945U 20001AH  25018.25494387  .00077337  00000-0  86622-3 0  9991
2 44945  53.0530  10.4457 0001360  88.8061 271.3108 15.62036432277804
Epoch: 2025-01-18T06:07Z
Definitive object data (Epoch: 2025-01-18T06:07:07.15Z)
Latitude-0.00001°
Longitude160.75904°
Altitude382.655 km
Speed7.682 km/s
True Right ascension00h 41m 46s
True Declination0° 00' 00"
Sunlit
Object was in daylight at TLE epoch
Visualization TLE readout
Latitude52.78775°
Longitude-102.78835°
Altitude386.974 km
Speed7.685 km/s
Apparent Right ascension09h 59m 45s
Apparent Declination10° 26' 44"
Sunlit
Object is in full shadow
Visualization observer readout
Local Sidereal Time00:19:05
Azimuth40.529° NE
Elevation-30.185°
Doppler factor1
Orbital elements
Apogee altitude382.972 km
Perigee altitude381.133 km
Semi-major axis6,760.19 km
Eccentricity0.000136
Inclination53.053°
RAAN10.4457°
Arg. of periapsis88.8061°
True anomaly271.29522°
Mean anomaly271.3108°
Eccentric anomaly271.30301°
Mean motion3.90485 °/min
BSTAR0.00086622
Orbital period92.19 mins
Loading maneuver chart data...

STARLINK-1109 Visibility forecast

Observer location: undefined°, undefined

Span
Click to sort rows by Start time (UTC) header in descending order
Start Az.
Max El. time (UTC)
Max El. Az.
Max El.
End time (UTC)
End Az.
4 mins2025-01-19 02:17:05.976Z243.606° WSW2025-01-19 02:19:05.976Z348.028° N41.698°2025-01-19 02:21:05.976Z42.176° NE
4 mins2025-01-19 08:44:05.976Z313.769° NW2025-01-19 08:45:05.976Z323.092° NNW41.159°2025-01-19 08:48:05.976Z127.682° SE
|